This is the latest recevied weather packets stored in our database for station/object F5PHW-13. If no packets are shown the sender has not sent any weather packets the latest 10 day(s).
| Time | Temp. | Humidity | Pressure | Rain* | Wind** | Luminosity | Snow |
|---|---|---|---|---|---|---|---|
| 1777726276 | 17.22° C | 82% | 1011.4 hPa | 0.76 mm | - | - | - |
| 1777725076 | 16.67° C | 84% | 1011.6 hPa | 0.76 mm | - | - | - |
| 1777723876 | 16.11° C | 85% | 1011.8 hPa | 0.76 mm | - | - | - |
| 1777722676 | 15.56° C | 87% | 1011.8 hPa | 0.76 mm | - | - | - |
| 1777721476 | 15° C | 88% | 1012 hPa | 0.76 mm | - | - | - |
| 1777720279 | 14.44° C | 89% | 1012.1 hPa | 0.76 mm | - | - | - |
| 1777719078 | 14.44° C | 89% | 1012 hPa | 0.76 mm | - | - | - |
| 1777717880 | 14.44° C | 89% | 1011.8 hPa | 1.02 mm | - | - | - |
| 1777716682 | 14.44° C | 89% | 1011.8 hPa | 1.27 mm | - | - | - |
| 1777715480 | 13.89° C | 89% | 1011.3 hPa | 1.78 mm | - | - | - |
| 1777714280 | 13.89° C | 89% | 1011 hPa | 2.54 mm | - | - | - |
| 1777713080 | 13.33° C | 89% | 1011.4 hPa | 2.79 mm | - | - | - |
| 1777711881 | 13.33° C | 89% | 1012 hPa | 2.54 mm | - | - | - |
| 1777710680 | 13.33° C | 88% | 1014.5 hPa | 1.78 mm | - | - | - |
| 1777709481 | 13.33° C | 88% | 1014.5 hPa | 1.02 mm | - | - | - |
| 1777708281 | 13.89° C | 88% | 1014.3 hPa | 0.51 mm | - | - | - |
| 1777707082 | 13.33° C | 88% | 1013.1 hPa | 0 mm | - | - | - |
| 1777705880 | 13.33° C | 88% | 1012.3 hPa | 0 mm | - | - | - |
| 1777704680 | 12.78° C | 88% | 1012.2 hPa | 0 mm | - | - | - |
| 1777703481 | 12.78° C | 88% | 1012.4 hPa | 0 mm | - | - | - |
| 1777702281 | 12.78° C | 88% | 1012.9 hPa | 0.25 mm | - | - | - |
| 1777701081 | 12.78° C | 87% | 1013.4 hPa | 0.76 mm | - | - | - |
| 1777699880 | 12.78° C | 87% | 1013.5 hPa | 0.76 mm | - | - | - |
| 1777698679 | 12.78° C | 87% | 1013.9 hPa | 0.25 mm | - | - | - |
| 1777697480 | 12.78° C | 86% | 1014.3 hPa | 0 mm | - | - | - |
* Rain latest hour (hover to see other rain measurements)
** Current wind speed in m/s (hover to see current wind gust speed)